Time,TemperatureF,DewpointF,PressureIn,WindDirection,WindDirectionDegrees,WindSpeedMPH,WindSpeedGustMPH,Humidity,HourlyPrecipIn,Conditions,Clouds,dailyrainin,SolarRadiationWatts/m^2,SoftwareType,DateUTC
2013-01-29 00:00:00,27.9,24.8,29.97,North,1,0.0,0.0,88,0.00,OVC,FEW,0.00,0.0,WeatherDisplay:10.37,2013-01-29 05:00:00,
2013-01-29 00:02:00,27.9,24.8,29.97,North,358,0.0,0.0,88,0.00,OVC,FEW,0.00,0.0,WeatherDisplay:10.37,2013-01-29 05:02:00,
2013-01-29 00:03:00,27.9,24.8,29.97,North,360,0.0,0.0,88,0.00,OVC,FEW,0.00,0.0,WeatherDisplay:10.37,2013-01-29 05:03:00,
2013-01-29 00:08:00,27.9,24.8,29.97,North,1,0.0,0.0,88,0.00,OVC,FEW,0.00,0.0,WeatherDisplay:10.37,2013-01-29 05:08:00,
2013-01-29 00:13:00,27.9,24.8,29.97,North,360,0.0,0.0,88,0.00,OVC,FEW,0.00,0.0,WeatherDisplay:10.37,2013-01-29 05:13:00,
2013-01-29 00:18:00,27.9,24.8,29.97,North,349,0.0,0.0,88,0.00,OVC,FEW,0.00,0.0,WeatherDisplay:10.37,2013-01-29 05:18:00,
2013-01-29 00:23:00,27.7,24.9,29.97,NNW,332,0.0,0.0,89,0.00,OVC,FEW,0.00,0.0,WeatherDisplay:10.37,2013-01-29 05:23:00,
2013-01-29 00:28:00,27.7,24.9,29.97,NNW,340,0.0,0.0,89,0.00,OVC,FEW,0.00,0.0,WeatherDisplay:10.37,2013-01-29 05:28:00,
2013-01-29 00:33:00,27.7,24.9,29.97,NNW,336,0.0,0.0,89,0.00,OVC,FEW,0.00,0.0,WeatherDisplay:10.37,2013-01-29 05:33:00,
2013-01-29 00:38:00,27.7,24.9,29.97,NNW,340,0.0,0.0,89,0.00,OVC,FEW,0.00,0.0,WeatherDisplay:10.37,2013-01-29 05:38:00,
2013-01-29 00:43:00,27.7,24.9,29.97,NNE,13,0.0,0.0,89,0.00,OVC,FEW,0.00,0.0,WeatherDisplay:10.37,2013-01-29 05:43:00,
2013-01-29 00:48:00,27.7,24.9,29.97,NNW,347,0.0,0.0,89,0.00,OVC,FEW,0.00,0.0,WeatherDisplay:10.37,2013-01-29 05:48:00,
2013-01-29 00:53:00,27.7,24.9,29.97,North,358,0.0,0.0,89,0.00,OVC,FEW,0.00,0.0,WeatherDisplay:10.37,2013-01-29 05:53:00,
2013-01-29 00:58:00,27.7,24.9,29.97,North,10,0.0,0.0,89,0.00,OVC,FEW,0.00,0.0,WeatherDisplay:10.37,2013-01-29 05:58:00,
2013-01-29 01:03:00,27.7,24.9,29.97,North,11,0.0,0.0,89,0.00,OVC,FEW,0.00,0.0,WeatherDisplay:10.37,2013-01-29 06:03:00,
2013-01-29 01:08:00,27.5,24.7,29.97,North,11,0.0,0.0,89,0.00,OVC,FEW,0.00,0.0,WeatherDisplay:10.37,2013-01-29 06:08:00,
2013-01-29 01:13:00,27.5,24.7,29.97,North,11,0.0,0.0,89,0.00,OVC,FEW,0.00,0.0,WeatherDisplay:10.37,2013-01-29 06:13:00,
2013-01-29 01:18:00,27.5,24.7,29.97,North,10,0.0,0.0,89,0.00,OVC,FEW,0.00,0.0,WeatherDisplay:10.37,2013-01-29 06:18:00,
2013-01-29 01:23:00,27.7,24.9,29.97,North,6,0.0,0.0,89,0.00,OVC,FEW,0.00,0.0,WeatherDisplay:10.37,2013-01-29 06:23:00,
2013-01-29 01:28:00,27.7,24.9,29.97,North,357,0.0,0.0,89,0.00,OVC,FEW,0.00,0.0,WeatherDisplay:10.37,2013-01-29 06:28:00,
2013-01-29 01:33:00,27.7,24.9,29.97,North,357,0.0,0.0,89,0.00,OVC,FEW,0.00,0.0,WeatherDisplay:10.37,2013-01-29 06:33:00,
2013-01-29 01:38:00,27.7,24.9,30.00,North,1,0.0,0.0,89,0.00,OVC,FEW,0.00,0.0,WeatherDisplay:10.37,2013-01-29 06:38:00,
2013-01-29 01:43:00,27.7,24.9,30.00,North,1,0.0,0.0,89,0.00,OVC,FEW,0.00,0.0,WeatherDisplay:10.37,2013-01-29 06:43:00,
2013-01-29 01:48:00,27.7,24.9,30.00,North,1,0.0,0.0,89,0.00,OVC,FEW,0.00,0.0,WeatherDisplay:10.37,2013-01-29 06:48:00,
2013-01-29 01:53:00,27.7,24.9,30.00,North,1,0.0,0.0,89,0.00,OVC,FEW,0.00,0.0,WeatherDisplay:10.37,2013-01-29 06:53:00,
2013-01-29 01:58:00,27.7,24.9,30.00,North,1,0.0,0.0,89,0.00,OVC,FEW,0.00,0.0,WeatherDisplay:10.37,2013-01-29 06:58:00,
2013-01-29 02:03:00,27.7,25.1,30.00,North,3,0.0,0.0,90,0.00,OVC,FEW,0.00,0.0,WeatherDisplay:10.37,2013-01-29 07:03:00,
2013-01-29 02:08:00,27.7,25.1,30.00,NW,324,0.0,0.0,90,0.00,OVC,FEW,0.00,0.0,WeatherDisplay:10.37,2013-01-29 07:08:00,
2013-01-29 02:13:00,27.7,25.1,30.00,North,354,0.0,0.0,90,0.00,OVC,FEW,0.00,0.0,WeatherDisplay:10.37,2013-01-29 07:13:00,
2013-01-29 02:18:00,27.7,25.1,30.00,North,2,0.0,0.0,90,0.00,OVC,FEW,0.00,0.0,WeatherDisplay:10.37,2013-01-29 07:18:00,
2013-01-29 02:24:00,27.7,25.1,30.00,North,356,0.0,0.0,90,0.00,OVC,FEW,0.00,0.0,WeatherDisplay:10.37,2013-01-29 07:24:00,
2013-01-29 02:29:00,27.7,25.1,30.00,NNW,346,0.0,0.0,90,0.00,OVC,FEW,0.00,0.0,WeatherDisplay:10.37,2013-01-29 07:29:00,
2013-01-29 02:34:00,27.7,25.1,30.00,NNW,338,0.0,0.0,90,0.00,OVC,FEW,0.00,0.0,WeatherDisplay:10.37,2013-01-29 07:34:00,
2013-01-29 02:39:00,27.7,25.1,30.00,NNW,343,0.0,0.0,90,0.00,OVC,FEW,0.00,0.0,WeatherDisplay:10.37,2013-01-29 07:39:00,
2013-01-29 02:44:00,27.7,25.1,30.00,North,351,0.0,0.0,90,0.00,OVC,FEW,0.00,0.0,WeatherDisplay:10.37,2013-01-29 07:44:00,
2013-01-29 02:49:00,27.7,25.1,30.00,North,352,0.0,0.0,90,0.00,OVC,FEW,0.00,0.0,WeatherDisplay:10.37,2013-01-29 07:49:00,
2013-01-29 02:54:00,27.7,25.1,30.00,North,355,0.0,0.0,90,0.00,OVC,FEW,0.00,0.0,WeatherDisplay:10.37,2013-01-29 07:54:00,
2013-01-29 02:59:00,27.7,25.1,30.00,North,354,0.0,0.0,90,0.00,OVC,FEW,0.00,0.0,WeatherDisplay:10.37,2013-01-29 07:59:00,
2013-01-29 03:04:00,27.7,25.1,30.00,North,356,0.0,0.0,90,0.00,OVC,FEW,0.00,0.0,WeatherDisplay:10.37,2013-01-29 08:04:00,
2013-01-29 03:09:00,27.7,25.1,30.00,North,355,0.0,0.0,90,0.00,OVC,FEW,0.00,0.0,WeatherDisplay:10.37,2013-01-29 08:09:00,
2013-01-29 03:14:00,27.7,25.4,30.00,NNE,16,0.0,0.0,91,0.00,OVC,FEW,0.00,0.0,WeatherDisplay:10.37,2013-01-29 08:14:00,
2013-01-29 03:19:00,27.7,25.4,30.00,North,5,0.0,0.0,91,0.00,OVC,FEW,0.00,0.0,WeatherDisplay:10.37,2013-01-29 08:19:00,
2013-01-29 03:24:00,27.5,25.2,30.00,North,2,0.0,0.0,91,0.00,OVC,FEW,0.00,0.0,WeatherDisplay:10.37,2013-01-29 08:24:00,
2013-01-29 03:29:00,27.5,25.2,30.00,North,4,0.0,0.0,91,0.00,OVC,FEW,0.00,0.0,WeatherDisplay:10.37,2013-01-29 08:29:00,
2013-01-29 03:34:00,27.5,25.2,30.00,North,7,0.0,0.0,91,0.00,OVC,FEW,0.00,0.0,WeatherDisplay:10.37,2013-01-29 08:34:00,
2013-01-29 03:39:00,27.5,25.2,30.00,North,351,0.0,0.0,91,0.00,OVC,FEW,0.00,0.0,WeatherDisplay:10.37,2013-01-29 08:39:00,
2013-01-29 03:44:00,27.5,25.2,30.00,North,354,0.0,0.0,91,0.00,OVC,FEW,0.00,0.0,WeatherDisplay:10.37,2013-01-29 08:44:00,
2013-01-29 03:49:00,27.5,25.2,30.00,NNW,330,0.0,0.0,91,0.00,OVC,FEW,0.00,0.0,WeatherDisplay:10.37,2013-01-29 08:49:00,
2013-01-29 03:54:00,27.5,25.2,30.00,NNW,342,0.0,0.0,91,0.00,OVC,FEW,0.00,0.0,WeatherDisplay:10.37,2013-01-29 08:54:00,
2013-01-29 03:59:00,27.5,25.2,30.00,NNW,347,0.0,0.0,91,0.00,OVC,FEW,0.00,0.0,WeatherDisplay:10.37,2013-01-29 08:59:00,
2013-01-29 04:04:00,27.5,25.2,30.00,NNW,348,0.0,0.0,91,0.00,OVC,FEW,0.00,0.0,WeatherDisplay:10.37,2013-01-29 09:04:00,
2013-01-29 04:09:00,27.5,25.2,30.00,NNW,348,0.0,0.0,91,0.00,OVC,FEW,0.00,0.0,WeatherDisplay:10.37,2013-01-29 09:09:00,
2013-01-29 04:14:00,27.5,25.2,30.00,North,4,0.0,0.0,91,0.00,OVC,FEW,0.00,0.0,WeatherDisplay:10.37,2013-01-29 09:14:00,
2013-01-29 04:19:00,27.5,25.2,30.00,NNW,336,0.0,0.0,91,0.00,OVC,FEW,0.00,0.0,WeatherDisplay:10.37,2013-01-29 09:19:00,
2013-01-29 04:24:00,27.5,25.2,30.00,NNW,345,0.0,0.0,91,0.00,OVC,FEW,0.00,0.0,WeatherDisplay:10.37,2013-01-29 09:24:00,
2013-01-29 04:29:00,27.5,25.2,30.00,NNW,346,0.0,0.0,91,0.00,OVC,FEW,0.00,0.0,WeatherDisplay:10.37,2013-01-29 09:29:00,
2013-01-29 04:34:00,27.5,25.2,30.00,NNW,344,0.0,0.0,91,0.00,OVC,FEW,0.00,0.0,WeatherDisplay:10.37,2013-01-29 09:34:00,
2013-01-29 04:39:00,27.5,25.2,30.03,North,350,0.0,0.0,91,0.00,OVC,FEW,0.00,0.0,WeatherDisplay:10.37,2013-01-29 09:39:00,
2013-01-29 04:44:00,27.5,25.2,30.03,North,8,0.0,0.0,91,0.00,OVC,FEW,0.00,0.0,WeatherDisplay:10.37,2013-01-29 09:44:00,
2013-01-29 04:49:00,27.3,25.0,30.03,North,352,0.0,0.0,91,0.00,OVC,FEW,0.00,0.0,WeatherDisplay:10.37,2013-01-29 09:49:00,
2013-01-29 04:54:00,27.3,25.0,30.03,NNE,13,0.0,0.0,91,0.00,OVC,FEW,0.00,0.0,WeatherDisplay:10.37,2013-01-29 09:54:00,
2013-01-29 04:59:00,27.3,25.0,30.03,North,6,0.0,0.0,91,0.00,OVC,FEW,0.00,0.0,WeatherDisplay:10.37,2013-01-29 09:59:00,
2013-01-29 05:04:00,27.1,24.9,30.03,NNE,14,0.0,0.0,91,0.00,OVC,FEW,0.00,0.0,WeatherDisplay:10.37,2013-01-29 10:04:00,
2013-01-29 05:09:00,27.1,24.9,30.03,NNE,13,0.0,0.0,91,0.00,OVC,FEW,0.00,0.0,WeatherDisplay:10.37,2013-01-29 10:09:00,
2013-01-29 05:14:00,27.1,24.9,30.03,NNW,331,0.0,0.0,91,0.00,OVC,FEW,0.00,0.0,WeatherDisplay:10.37,2013-01-29 10:14:00,
2013-01-29 05:19:00,27.1,24.9,30.03,North,356,0.0,0.0,91,0.00,OVC,FEW,0.00,0.0,WeatherDisplay:10.37,2013-01-29 10:19:00,
2013-01-29 05:24:00,27.1,24.9,30.03,NNW,345,0.0,0.0,91,0.00,OVC,FEW,0.00,0.0,WeatherDisplay:10.37,2013-01-29 10:24:00,
2013-01-29 05:29:00,27.0,24.7,30.03,North,357,0.0,0.0,91,0.00,OVC,FEW,0.00,0.0,WeatherDisplay:10.37,2013-01-29 10:29:00,
2013-01-29 05:34:00,27.0,24.7,30.03,North,357,0.0,0.0,91,0.00,OVC,FEW,0.00,0.0,WeatherDisplay:10.37,2013-01-29 10:34:00,
2013-01-29 05:39:00,27.0,24.7,30.03,North,357,0.0,0.0,91,0.00,OVC,FEW,0.00,0.0,WeatherDisplay:10.37,2013-01-29 10:39:00,
2013-01-29 05:44:00,27.0,24.7,30.03,North,349,0.0,0.0,91,0.00,OVC,FEW,0.00,0.0,WeatherDisplay:10.37,2013-01-29 10:44:00,
2013-01-29 05:49:00,27.0,24.7,30.03,NW,320,0.0,0.0,91,0.00,OVC,FEW,0.00,0.0,WeatherDisplay:10.37,2013-01-29 10:49:00,
2013-01-29 05:54:00,27.0,24.7,30.06,NW,325,0.0,0.0,91,0.00,OVC,FEW,0.00,0.0,WeatherDisplay:10.37,2013-01-29 10:54:00,
2013-01-29 05:59:00,27.0,24.7,30.06,NW,325,0.0,0.0,91,0.00,OVC,FEW,0.00,0.0,WeatherDisplay:10.37,2013-01-29 10:59:00,
2013-01-29 06:04:00,27.0,24.9,30.06,North,349,0.0,0.0,92,0.00,OVC,FEW,0.00,0.0,WeatherDisplay:10.37,2013-01-29 11:04:00,
2013-01-29 06:09:00,27.0,24.9,30.06,North,349,0.0,0.0,92,0.00,OVC,FEW,0.00,0.0,WeatherDisplay:10.37,2013-01-29 11:09:00,
2013-01-29 06:14:00,27.0,24.9,30.06,North,352,0.0,0.0,92,0.00,OVC,FEW,0.00,0.0,WeatherDisplay:10.37,2013-01-29 11:14:00,
2013-01-29 06:19:00,27.0,24.9,30.06,North,352,0.0,0.0,92,0.00,OVC,FEW,0.00,0.0,WeatherDisplay:10.37,2013-01-29 11:19:00,
2013-01-29 06:24:00,27.0,24.9,30.06,NW,323,0.0,0.0,92,0.00,OVC,FEW,0.00,0.0,WeatherDisplay:10.37,2013-01-29 11:24:00,
2013-01-29 06:29:00,27.0,24.9,30.06,NW,324,0.0,0.0,92,0.00,OVC,FEW,0.00,0.0,WeatherDisplay:10.37,2013-01-29 11:29:00,
2013-01-29 06:34:00,27.0,24.9,30.06,NNW,327,0.0,0.0,92,0.00,OVC,FEW,0.00,0.0,WeatherDisplay:10.37,2013-01-29 11:34:00,
2013-01-29 06:39:00,27.0,24.9,30.06,NNW,327,0.0,0.0,92,0.00,OVC,FEW,0.00,0.0,WeatherDisplay:10.37,2013-01-29 11:39:00,
2013-01-29 06:44:00,27.0,24.9,30.06,NW,324,0.0,0.0,92,0.00,OVC,FEW,0.00,0.0,WeatherDisplay:10.37,2013-01-29 11:44:00,
2013-01-29 06:49:00,27.0,24.9,30.06,North,356,0.0,0.0,92,0.00,OVC,FEW,0.00,0.0,WeatherDisplay:10.37,2013-01-29 11:49:00,
2013-01-29 06:54:00,27.0,24.9,30.08,NW,320,0.0,0.0,92,0.00,OVC,FEW,0.00,0.0,WeatherDisplay:10.37,2013-01-29 11:54:00,
2013-01-29 06:59:00,27.0,24.9,30.08,NNW,340,0.0,0.0,92,0.00,OVC,FEW,0.00,0.0,WeatherDisplay:10.37,2013-01-29 11:59:00,
2013-01-29 07:04:00,27.0,24.9,30.08,NNW,339,0.0,0.0,92,0.00,OVC,FEW,0.00,0.0,WeatherDisplay:10.37,2013-01-29 12:04:00,
2013-01-29 07:09:00,27.0,24.9,30.08,NNW,344,0.0,0.0,92,0.00,OVC,FEW,0.00,0.0,WeatherDisplay:10.37,2013-01-29 12:09:00,
2013-01-29 07:14:00,27.0,24.9,30.08,NNW,348,0.0,0.0,92,0.00,OVC,FEW,0.00,0.0,WeatherDisplay:10.37,2013-01-29 12:14:00,
2013-01-29 07:19:00,27.0,24.9,30.08,North,7,0.0,0.0,92,0.00,OVC,FEW,0.00,0.0,WeatherDisplay:10.37,2013-01-29 12:19:00,
2013-01-29 07:24:00,26.8,24.8,30.08,North,9,0.0,0.0,92,0.00,OVC,FEW,0.00,0.0,WeatherDisplay:10.37,2013-01-29 12:24:00,
2013-01-29 07:29:00,27.0,24.9,30.08,North,349,0.0,0.0,92,0.00,OVC,FEW,0.00,0.0,WeatherDisplay:10.37,2013-01-29 12:29:00,
2013-01-29 07:34:00,27.0,24.9,30.08,North,351,3.5,0.0,92,0.00,OVC,FEW,0.00,0.0,WeatherDisplay:10.37,2013-01-29 12:34:00,
2013-01-29 07:39:00,27.0,24.9,30.11,NNW,344,0.0,0.0,92,0.00,OVC,FEW,0.00,0.0,WeatherDisplay:10.37,2013-01-29 12:39:00,
2013-01-29 07:44:00,27.0,24.9,30.11,NNE,25,0.0,0.0,92,0.00,OVC,FEW,0.00,0.7,WeatherDisplay:10.37,2013-01-29 12:44:00,
2013-01-29 07:49:00,27.0,24.9,30.11,North,7,0.0,0.0,92,0.00,OVC,FEW,0.00,1.2,WeatherDisplay:10.37,2013-01-29 12:49:00,
2013-01-29 07:54:00,27.0,24.9,30.11,NNE,22,0.0,0.0,92,0.00,OVC,FEW,0.00,1.8,WeatherDisplay:10.37,2013-01-29 12:54:00,
2013-01-29 07:59:00,27.0,24.9,30.11,NNW,344,0.0,0.0,92,0.00,OVC,FEW,0.00,2.4,WeatherDisplay:10.37,2013-01-29 12:59:00,
2013-01-29 08:04:00,27.0,25.2,30.11,North,7,0.0,0.0,93,0.00,OVC,FEW,0.00,3.0,WeatherDisplay:10.37,2013-01-29 13:04:00,
2013-01-29 08:09:00,27.1,25.4,30.08,North,6,0.0,0.0,93,0.00,OVC,FEW,0.00,3.5,WeatherDisplay:10.37,2013-01-29 13:09:00,
2013-01-29 08:14:00,27.1,25.4,30.08,North,359,0.0,0.0,93,0.00,OVC,FEW,0.00,4.2,WeatherDisplay:10.37,2013-01-29 13:14:00,
2013-01-29 08:19:00,27.3,25.6,30.08,NNW,333,0.0,0.0,93,0.00,OVC,FEW,0.00,4.6,WeatherDisplay:10.37,2013-01-29 13:19:00,
2013-01-29 08:24:00,27.3,25.6,30.11,NNW,342,0.0,0.0,93,0.00,OVC,FEW,0.00,5.2,WeatherDisplay:10.37,2013-01-29 13:24:00,
2013-01-29 08:29:00,27.5,25.7,30.11,NNW,330,0.0,0.0,93,0.00,OVC,FEW,0.00,5.5,WeatherDisplay:10.37,2013-01-29 13:29:00,
2013-01-29 08:34:00,27.5,25.7,30.11,NNW,345,0.0,0.0,93,0.00,OVC,FEW,0.00,6.2,WeatherDisplay:10.37,2013-01-29 13:34:00,
2013-01-29 08:39:00,27.7,25.9,30.11,NNE,16,0.0,0.0,93,0.00,OVC,FEW,0.00,6.5,WeatherDisplay:10.37,2013-01-29 13:39:00,
2013-01-29 08:44:00,27.9,26.1,30.11,NNW,337,0.0,0.0,93,0.00,OVC,FEW,0.00,6.8,WeatherDisplay:10.37,2013-01-29 13:44:00,
2013-01-29 08:49:00,28.0,26.3,30.11,North,352,0.0,0.0,93,0.00,OVC,FEW,0.00,7.0,WeatherDisplay:10.37,2013-01-29 13:49:00,
2013-01-29 08:54:00,28.2,26.5,30.11,North,352,0.0,0.0,93,0.00,OVC,FEW,0.00,7.2,WeatherDisplay:10.37,2013-01-29 13:54:00,
2013-01-29 08:59:00,28.4,26.6,30.11,North,352,0.0,0.0,93,0.00,OVC,FEW,0.00,7.3,WeatherDisplay:10.37,2013-01-29 13:59:00,
2013-01-29 09:04:00,28.6,26.8,30.11,North,3,0.0,0.0,93,0.00,OVC,FEW,0.00,7.4,WeatherDisplay:10.37,2013-01-29 14:04:00,
2013-01-29 09:09:00,28.8,27.0,30.11,North,4,0.0,0.0,93,0.00,OVC,FEW,0.00,7.5,WeatherDisplay:10.37,2013-01-29 14:09:00,
2013-01-29 09:14:00,29.1,27.3,30.11,North,353,0.0,0.0,93,0.00,OVC,FEW,0.00,7.0,WeatherDisplay:10.37,2013-01-29 14:14:00,
2013-01-29 09:19:00,29.5,27.7,30.11,North,2,0.0,0.0,93,0.00,OVC,FEW,0.00,6.5,WeatherDisplay:10.37,2013-01-29 14:19:00,
2013-01-29 09:24:00,29.5,27.7,30.11,North,356,0.0,0.0,93,0.00,OVC,FEW,0.00,6.8,WeatherDisplay:10.37,2013-01-29 14:24:00,
2013-01-29 09:29:00,29.5,27.7,30.11,North,3,0.0,0.0,93,0.00,OVC,FEW,0.00,7.1,WeatherDisplay:10.37,2013-01-29 14:29:00,
2013-01-29 09:34:00,29.7,27.9,30.11,North,2,0.0,0.0,93,0.00,OVC,FEW,0.00,6.9,WeatherDisplay:10.37,2013-01-29 14:34:00,
2013-01-29 09:39:00,29.8,28.1,30.11,North,355,0.0,0.0,93,0.00,OVC,FEW,0.00,6.7,WeatherDisplay:10.37,2013-01-29 14:39:00,
2013-01-29 09:44:00,30.2,28.4,30.11,North,351,0.0,0.0,93,0.00,OVC,FEW,0.00,6.4,WeatherDisplay:10.37,2013-01-29 14:44:00,
2013-01-29 09:49:00,30.2,28.4,30.11,NW,306,0.0,0.0,93,0.00,OVC,FEW,0.00,6.0,WeatherDisplay:10.37,2013-01-29 14:49:00,
2013-01-29 09:54:00,30.4,28.6,30.11,NNW,330,0.0,0.0,93,0.00,OVC,FEW,0.00,5.6,WeatherDisplay:10.37,2013-01-29 14:54:00,
2013-01-29 09:59:00,30.6,28.8,30.11,NNW,331,0.0,0.0,93,0.00,OVC,FEW,0.00,5.2,WeatherDisplay:10.37,2013-01-29 14:59:00,
2013-01-29 10:04:00,30.9,29.1,30.11,NNW,342,0.0,0.0,93,0.00,OVC,FEW,0.00,4.0,WeatherDisplay:10.37,2013-01-29 15:04:00,
2013-01-29 10:09:00,31.1,29.3,30.11,NW,319,0.0,0.0,93,0.00,OVC,FEW,0.00,3.4,WeatherDisplay:10.37,2013-01-29 15:09:00,
2013-01-29 10:14:00,31.1,29.3,30.11,NW,319,0.0,0.0,93,0.00,OVC,FEW,0.00,3.5,WeatherDisplay:10.37,2013-01-29 15:14:00,
2013-01-29 10:19:00,31.3,29.5,30.11,NW,314,0.0,0.0,93,0.00,OVC,FEW,0.00,2.9,WeatherDisplay:10.37,2013-01-29 15:19:00,
2013-01-29 10:24:00,31.3,29.5,30.14,NNW,346,0.0,0.0,93,0.00,OVC,FEW,0.00,3.0,WeatherDisplay:10.37,2013-01-29 15:24:00,
2013-01-29 10:29:00,31.6,29.8,30.14,North,350,3.5,3.5,93,0.00,OVC,FEW,0.00,1.5,WeatherDisplay:10.37,2013-01-29 15:29:00,
2013-01-29 10:34:00,31.8,30.0,30.14,NW,323,0.0,0.0,93,0.00,OVC,FEW,0.00,0.8,WeatherDisplay:10.37,2013-01-29 15:34:00,
2013-01-29 10:39:00,32.2,30.4,30.14,NNE,17,0.0,0.0,93,0.00,OVC,FEW,0.00,0.0,WeatherDisplay:10.37,2013-01-29 15:39:00,
2013-01-29 10:44:00,32.5,30.7,30.14,NNE,19,0.0,0.0,93,0.00,OVC,FEW,0.00,0.0,WeatherDisplay:10.37,2013-01-29 15:44:00,
2013-01-29 10:49:00,32.5,30.7,30.14,NNW,340,0.0,0.0,93,0.00,OVC,FEW,0.00,0.0,WeatherDisplay:10.37,2013-01-29 15:49:00,
2013-01-29 10:54:00,32.5,30.7,30.14,NNW,340,0.0,0.0,93,0.00,OVC,FEW,0.00,0.0,WeatherDisplay:10.37,2013-01-29 15:54:00,
2013-01-29 10:59:00,32.7,30.9,30.14,North,351,0.0,0.0,93,0.00,OVC,FEW,0.00,0.0,WeatherDisplay:10.37,2013-01-29 15:59:00,
2013-01-29 11:04:00,32.7,30.9,30.14,North,353,0.0,0.0,93,0.00,OVC,FEW,0.00,0.0,WeatherDisplay:10.37,2013-01-29 16:04:00,
2013-01-29 11:09:00,32.9,31.1,30.14,North,1,0.0,0.0,93,0.00,OVC,FEW,0.00,0.0,WeatherDisplay:10.37,2013-01-29 16:09:00,
2013-01-29 11:14:00,32.7,30.9,30.14,North,1,0.0,0.0,93,0.00,OVC,FEW,0.00,0.0,WeatherDisplay:10.37,2013-01-29 16:14:00,
2013-01-29 11:19:00,32.9,31.1,30.14,North,2,0.0,0.0,93,0.00,OVC,FEW,0.00,0.0,WeatherDisplay:10.37,2013-01-29 16:19:00,
2013-01-29 11:24:00,33.1,31.3,30.14,NNE,12,0.0,0.0,93,0.00,OVC,FEW,0.00,0.0,WeatherDisplay:10.37,2013-01-29 16:24:00,
2013-01-29 11:29:00,33.1,31.3,30.14,NNE,12,0.0,0.0,93,0.00,OVC,FEW,0.00,0.0,WeatherDisplay:10.37,2013-01-29 16:29:00,
2013-01-29 11:34:00,33.1,31.3,30.14,North,10,0.0,0.0,93,0.00,OVC,FEW,0.00,0.0,WeatherDisplay:10.37,2013-01-29 16:34:00,
2013-01-29 11:39:00,33.1,31.3,30.14,North,10,0.0,0.0,93,0.00,OVC,FEW,0.00,0.0,WeatherDisplay:10.37,2013-01-29 16:39:00,
2013-01-29 11:44:00,33.3,31.5,30.14,North,350,0.0,0.0,93,0.00,OVC,FEW,0.00,0.0,WeatherDisplay:10.37,2013-01-29 16:44:00,
2013-01-29 11:49:00,33.4,31.6,30.14,NNW,338,0.0,0.0,93,0.00,OVC,FEW,0.00,0.0,WeatherDisplay:10.37,2013-01-29 16:49:00,
2013-01-29 11:54:00,33.6,31.8,30.11,NNW,330,0.0,0.0,93,0.00,OVC,FEW,0.00,0.0,WeatherDisplay:10.37,2013-01-29 16:54:00,
2013-01-29 11:59:00,33.4,31.6,30.11,North,357,0.0,0.0,93,0.00,OVC,FEW,0.00,0.0,WeatherDisplay:10.37,2013-01-29 16:59:00,
2013-01-29 12:04:00,33.6,31.8,30.11,NNW,336,0.0,0.0,93,0.00,OVC,FEW,0.00,0.0,WeatherDisplay:10.37,2013-01-29 17:04:00,
2013-01-29 12:09:00,33.6,31.8,30.11,NNW,340,0.0,0.0,93,0.00,OVC,FEW,0.00,0.0,WeatherDisplay:10.37,2013-01-29 17:09:00,
2013-01-29 12:14:00,33.8,31.7,30.11,NW,321,0.0,0.0,92,0.08,RA,FEW,0.08,0.0,WeatherDisplay:10.37,2013-01-29 17:14:00,
2013-01-29 12:19:00,33.8,31.7,30.11,NNW,336,0.0,0.0,92,0.08,RA,FEW,0.08,0.0,WeatherDisplay:10.37,2013-01-29 17:19:00,
2013-01-29 12:24:00,34.2,32.1,30.11,NNW,336,0.0,0.0,92,0.08,OVC,FEW,0.08,0.0,WeatherDisplay:10.37,2013-01-29 17:24:00,
2013-01-29 12:29:00,34.3,32.5,30.11,NNW,348,0.0,0.0,93,0.08,OVC,FEW,0.08,0.0,WeatherDisplay:10.37,2013-01-29 17:29:00,
2013-01-29 12:34:00,34.3,32.3,30.11,NNW,330,0.0,0.0,92,0.08,OVC,FEW,0.08,0.0,WeatherDisplay:10.37,2013-01-29 17:34:00,
2013-01-29 12:39:00,34.3,32.3,30.11,NNW,335,0.0,0.0,92,0.08,OVC,FEW,0.12,0.0,WeatherDisplay:10.37,2013-01-29 17:39:00,
2013-01-29 12:44:00,34.3,32.3,30.11,NNW,342,0.0,0.0,92,0.12,RA,FEW,0.12,0.0,WeatherDisplay:10.37,2013-01-29 17:44:00,
2013-01-29 12:49:00,34.2,32.1,30.11,NNW,346,0.0,0.0,92,0.12,RA,FEW,0.12,0.0,WeatherDisplay:10.37,2013-01-29 17:49:00,
2013-01-29 12:54:00,34.2,32.1,30.11,North,2,0.0,0.0,92,0.12,OVC,FEW,0.12,0.0,WeatherDisplay:10.37,2013-01-29 17:54:00,
2013-01-29 12:59:00,34.2,32.1,30.11,North,1,0.0,0.0,92,0.12,OVC,FEW,0.12,0.0,WeatherDisplay:10.37,2013-01-29 17:59:00,
2013-01-29 13:04:00,34.3,32.3,30.11,North,359,0.0,0.0,92,0.12,OVC,FEW,0.12,0.0,WeatherDisplay:10.37,2013-01-29 18:04:00,
2013-01-29 13:09:00,34.2,32.1,30.11,North,360,0.0,0.0,92,0.12,OVC,FEW,0.12,0.0,WeatherDisplay:10.37,2013-01-29 18:09:00,
2013-01-29 13:14:00,34.3,32.3,30.11,NNE,23,0.0,0.0,92,0.08,RA,FEW,0.16,0.0,WeatherDisplay:10.37,2013-01-29 18:14:00,
2013-01-29 13:19:00,34.5,32.4,30.11,NNE,32,0.0,0.0,92,0.08,RA,FEW,0.16,0.0,WeatherDisplay:10.37,2013-01-29 18:19:00,
2013-01-29 13:24:00,34.5,32.4,30.11,NNE,28,0.0,0.0,92,0.08,OVC,FEW,0.16,0.0,WeatherDisplay:10.37,2013-01-29 18:24:00,
2013-01-29 13:29:00,34.5,32.2,30.11,NNE,29,0.0,0.0,91,0.08,OVC,FEW,0.16,0.0,WeatherDisplay:10.37,2013-01-29 18:29:00,
2013-01-29 13:34:00,34.5,32.2,30.11,NE,40,0.0,0.0,91,0.08,OVC,FEW,0.16,0.0,WeatherDisplay:10.37,2013-01-29 18:34:00,
2013-01-29 13:39:00,34.5,32.2,30.11,NE,40,0.0,0.0,91,0.08,OVC,FEW,0.16,0.0,WeatherDisplay:10.37,2013-01-29 18:39:00,
2013-01-29 13:44:00,34.3,32.0,30.11,NNW,337,0.0,0.0,91,0.04,OVC,FEW,0.16,0.0,WeatherDisplay:10.37,2013-01-29 18:44:00,
2013-01-29 13:49:00,34.3,32.0,30.11,NNW,339,0.0,0.0,91,0.04,OVC,FEW,0.16,0.0,WeatherDisplay:10.37,2013-01-29 18:49:00,
2013-01-29 13:54:00,34.2,31.8,30.11,NNW,339,0.0,0.0,91,0.04,OVC,FEW,0.16,0.0,WeatherDisplay:10.37,2013-01-29 18:54:00,
2013-01-29 13:59:00,34.0,31.6,30.11,NNW,339,0.0,0.0,91,0.04,OVC,FEW,0.16,0.0,WeatherDisplay:10.37,2013-01-29 18:59:00,
2013-01-29 14:04:00,34.2,31.8,30.11,NNW,339,0.0,0.0,91,0.04,OVC,FEW,0.16,0.0,WeatherDisplay:10.37,2013-01-29 19:04:00,
2013-01-29 14:09:00,34.2,31.8,30.11,NNW,339,0.0,0.0,91,0.04,OVC,FEW,0.16,0.0,WeatherDisplay:10.37,2013-01-29 19:09:00,
2013-01-29 14:14:00,34.3,32.0,30.11,NNW,339,0.0,0.0,91,0.00,OVC,FEW,0.16,0.0,WeatherDisplay:10.37,2013-01-29 19:14:00,
2013-01-29 14:19:00,34.3,32.0,30.11,NNW,339,0.0,0.0,91,0.00,OVC,FEW,0.16,0.0,WeatherDisplay:10.37,2013-01-29 19:19:00,
2013-01-29 14:24:00,34.3,32.0,30.11,NNW,339,0.0,0.0,91,0.00,OVC,FEW,0.16,0.0,WeatherDisplay:10.37,2013-01-29 19:24:00,
2013-01-29 14:29:00,34.3,32.0,30.11,NNW,339,0.0,0.0,91,0.00,OVC,FEW,0.16,0.0,WeatherDisplay:10.37,2013-01-29 19:29:00,
2013-01-29 14:34:00,34.3,32.0,30.11,NNW,339,0.0,0.0,91,0.00,OVC,FEW,0.16,0.0,WeatherDisplay:10.37,2013-01-29 19:34:00,
2013-01-29 14:39:00,34.3,32.0,30.14,NNW,340,0.0,0.0,91,0.00,OVC,FEW,0.16,0.0,WeatherDisplay:10.37,2013-01-29 19:39:00,
2013-01-29 14:44:00,34.3,32.0,30.14,NNW,339,0.0,0.0,91,0.00,OVC,FEW,0.16,0.0,WeatherDisplay:10.37,2013-01-29 19:44:00,
2013-01-29 14:49:00,34.3,32.0,30.14,NNW,340,0.0,0.0,91,0.00,OVC,FEW,0.16,0.0,WeatherDisplay:10.37,2013-01-29 19:49:00,
2013-01-29 14:54:00,34.5,32.2,30.11,North,353,0.0,0.0,91,0.00,OVC,FEW,0.16,0.0,WeatherDisplay:10.37,2013-01-29 19:54:00,
2013-01-29 14:57:00,34.5,32.2,30.11,North,353,0.0,0.0,91,0.00,OVC,FEW,0.16,0.0,WeatherDisplay:10.37,2013-01-29 19:57:00,
2013-01-29 15:02:00,34.5,32.2,30.11,North,353,0.0,0.0,91,0.00,OVC,FEW,0.16,0.0,WeatherDisplay:10.37,2013-01-29 20:02:00,
2013-01-29 15:07:00,34.7,32.3,30.11,ENE,61,0.0,0.0,91,0.00,OVC,FEW,0.16,0.0,WeatherDisplay:10.37,2013-01-29 20:07:00,
2013-01-29 15:12:00,34.7,32.3,30.11,NNE,23,0.0,0.0,91,0.00,OVC,FEW,0.16,0.0,WeatherDisplay:10.37,2013-01-29 20:12:00,
2013-01-29 15:17:00,34.5,32.2,30.11,NE,39,0.0,0.0,91,0.00,OVC,FEW,0.16,0.0,WeatherDisplay:10.37,2013-01-29 20:17:00,
2013-01-29 15:22:00,34.5,32.2,30.11,NE,45,0.0,0.0,91,0.00,OVC,FEW,0.16,0.0,WeatherDisplay:10.37,2013-01-29 20:22:00,
2013-01-29 15:27:00,34.5,32.2,30.11,ENE,64,0.0,0.0,91,0.00,OVC,FEW,0.16,0.0,WeatherDisplay:10.37,2013-01-29 20:27:00,
2013-01-29 15:32:00,34.3,32.0,30.11,East,81,0.0,0.0,91,0.00,OVC,FEW,0.16,0.0,WeatherDisplay:10.37,2013-01-29 20:32:00,
2013-01-29 15:37:00,34.3,32.0,30.11,East,84,0.0,0.0,91,0.00,OVC,FEW,0.16,0.0,WeatherDisplay:10.37,2013-01-29 20:37:00,
2013-01-29 15:42:00,34.3,32.0,30.11,East,85,0.0,0.0,91,0.00,OVC,FEW,0.16,0.0,WeatherDisplay:10.37,2013-01-29 20:42:00,
2013-01-29 15:47:00,34.3,32.0,30.11,East,85,0.0,0.0,91,0.00,OVC,FEW,0.16,0.0,WeatherDisplay:10.37,2013-01-29 20:47:00,
2013-01-29 15:52:00,34.3,32.0,30.11,East,100,0.0,0.0,91,0.00,OVC,FEW,0.16,0.0,WeatherDisplay:10.37,2013-01-29 20:52:00,
2013-01-29 15:57:00,34.2,31.8,30.11,East,100,0.0,0.0,91,0.00,OVC,FEW,0.16,0.0,WeatherDisplay:10.37,2013-01-29 20:57:00,
2013-01-29 16:02:00,34.2,31.8,30.11,East,100,0.0,0.0,91,0.00,OVC,FEW,0.16,0.0,WeatherDisplay:10.37,2013-01-29 21:02:00,
2013-01-29 16:07:00,34.2,31.8,30.14,East,100,0.0,0.0,91,0.00,OVC,FEW,0.16,0.0,WeatherDisplay:10.37,2013-01-29 21:07:00,
2013-01-29 16:12:00,34.2,31.8,30.14,East,100,0.0,0.0,91,0.00,OVC,FEW,0.16,0.0,WeatherDisplay:10.37,2013-01-29 21:12:00,
2013-01-29 16:17:00,34.0,31.6,30.14,East,100,0.0,0.0,91,0.00,OVC,FEW,0.16,0.0,WeatherDisplay:10.37,2013-01-29 21:17:00,
2013-01-29 16:22:00,34.0,31.6,30.11,East,100,0.0,0.0,91,0.00,OVC,FEW,0.16,0.0,WeatherDisplay:10.37,2013-01-29 21:22:00,
2013-01-29 16:27:00,34.0,31.6,30.11,ESE,105,0.0,0.0,91,0.00,OVC,FEW,0.16,0.0,WeatherDisplay:10.37,2013-01-29 21:27:00,
2013-01-29 16:32:00,34.0,31.6,30.11,ESE,105,0.0,0.0,91,0.00,OVC,FEW,0.16,0.0,WeatherDisplay:10.37,2013-01-29 21:32:00,
2013-01-29 16:37:00,34.0,31.6,30.11,South,173,0.0,0.0,91,0.00,OVC,FEW,0.16,0.0,WeatherDisplay:10.37,2013-01-29 21:37:00,
2013-01-29 16:42:00,33.8,31.5,30.11,South,173,0.0,0.0,91,0.00,OVC,FEW,0.16,0.0,WeatherDisplay:10.37,2013-01-29 21:42:00,
2013-01-29 16:47:00,33.8,31.5,30.11,SSE,163,0.0,0.0,91,0.00,OVC,FEW,0.16,0.0,WeatherDisplay:10.37,2013-01-29 21:47:00,
2013-01-29 16:52:00,33.8,31.5,30.11,SSE,163,0.0,0.0,91,0.00,OVC,FEW,0.16,0.0,WeatherDisplay:10.37,2013-01-29 21:52:00,
2013-01-29 16:58:00,33.8,31.7,30.11,SSE,163,0.0,0.0,92,0.00,OVC,FEW,0.16,0.0,WeatherDisplay:10.37,2013-01-29 21:58:00,
2013-01-29 17:03:00,33.8,31.7,30.11,South,184,0.0,0.0,92,0.00,OVC,FEW,0.16,0.0,WeatherDisplay:10.37,2013-01-29 22:03:00,
2013-01-29 17:08:00,33.6,31.5,30.14,South,177,0.0,0.0,92,0.00,OVC,FEW,0.16,0.0,WeatherDisplay:10.37,2013-01-29 22:08:00,
2013-01-29 17:13:00,33.6,31.5,30.14,South,177,0.0,0.0,92,0.00,OVC,FEW,0.16,0.0,WeatherDisplay:10.37,2013-01-29 22:13:00,
2013-01-29 17:18:00,33.6,31.5,30.14,South,177,0.0,0.0,92,0.00,OVC,FEW,0.16,0.0,WeatherDisplay:10.37,2013-01-29 22:18:00,
2013-01-29 17:23:00,33.6,31.5,30.11,South,177,0.0,0.0,92,0.00,OVC,FEW,0.16,0.0,WeatherDisplay:10.37,2013-01-29 22:23:00,
2013-01-29 17:28:00,33.6,31.5,30.11,South,173,0.0,0.0,92,0.00,OVC,FEW,0.16,0.0,WeatherDisplay:10.37,2013-01-29 22:28:00,
2013-01-29 17:33:00,33.6,31.5,30.11,SSE,162,0.0,0.0,92,0.00,OVC,FEW,0.16,0.0,WeatherDisplay:10.37,2013-01-29 22:33:00,
2013-01-29 17:38:00,33.6,31.5,30.14,SSE,161,0.0,0.0,92,0.00,OVC,FEW,0.16,0.0,WeatherDisplay:10.37,2013-01-29 22:38:00,
2013-01-29 17:43:00,33.6,31.5,30.14,SSE,161,0.0,0.0,92,0.00,OVC,FEW,0.16,0.0,WeatherDisplay:10.37,2013-01-29 22:43:00,
2013-01-29 17:48:00,33.6,31.5,30.14,SSW,212,0.0,0.0,92,0.00,OVC,FEW,0.16,0.0,WeatherDisplay:10.37,2013-01-29 22:48:00,
2013-01-29 17:53:00,33.6,31.5,30.14,SSW,206,0.0,0.0,92,0.00,OVC,FEW,0.16,0.0,WeatherDisplay:10.37,2013-01-29 22:53:00,
2013-01-29 17:58:00,33.6,31.5,30.14,SSW,206,0.0,0.0,92,0.00,OVC,FEW,0.16,0.0,WeatherDisplay:10.37,2013-01-29 22:58:00,
2013-01-29 18:03:00,33.6,31.5,30.14,SSW,213,0.0,0.0,92,0.00,OVC,FEW,0.16,0.0,WeatherDisplay:10.37,2013-01-29 23:03:00,
2013-01-29 18:08:00,33.6,31.8,30.14,SSW,213,0.0,0.0,93,0.00,OVC,FEW,0.16,0.0,WeatherDisplay:10.37,2013-01-29 23:08:00,
2013-01-29 18:13:00,33.6,31.8,30.14,SSE,147,0.0,0.0,93,0.00,OVC,FEW,0.16,0.0,WeatherDisplay:10.37,2013-01-29 23:13:00,
2013-01-29 18:18:00,33.6,31.8,30.14,SE,145,0.0,0.0,93,0.00,OVC,FEW,0.16,0.0,WeatherDisplay:10.37,2013-01-29 23:18:00,
2013-01-29 18:23:00,33.6,31.8,30.14,SE,145,0.0,0.0,93,0.00,OVC,FEW,0.16,0.0,WeatherDisplay:10.37,2013-01-29 23:23:00,
2013-01-29 18:28:00,33.6,31.8,30.14,SE,145,0.0,0.0,93,0.00,OVC,FEW,0.16,0.0,WeatherDisplay:10.37,2013-01-29 23:28:00,
2013-01-29 18:33:00,33.6,31.8,30.14,SE,145,0.0,0.0,93,0.00,OVC,FEW,0.16,0.0,WeatherDisplay:10.37,2013-01-29 23:33:00,
2013-01-29 18:38:00,33.6,31.8,30.14,SE,145,0.0,0.0,93,0.00,OVC,FEW,0.16,0.0,WeatherDisplay:10.37,2013-01-29 23:38:00,
2013-01-29 18:43:00,33.6,31.8,30.14,SE,145,0.0,0.0,93,0.00,OVC,FEW,0.16,0.0,WeatherDisplay:10.37,2013-01-29 23:43:00,
2013-01-29 18:48:00,33.6,31.8,30.14,SE,145,0.0,0.0,93,0.00,OVC,FEW,0.16,0.0,WeatherDisplay:10.37,2013-01-29 23:48:00,
2013-01-29 18:53:00,33.6,31.8,30.14,SE,145,0.0,0.0,93,0.00,OVC,FEW,0.16,0.0,WeatherDisplay:10.37,2013-01-29 23:53:00,
2013-01-29 18:58:00,33.6,31.8,30.14,SE,145,0.0,0.0,93,0.00,OVC,FEW,0.16,0.0,WeatherDisplay:10.37,2013-01-29 23:58:00,
2013-01-29 19:03:00,33.6,31.8,30.14,SE,145,0.0,0.0,93,0.00,OVC,FEW,0.16,0.0,WeatherDisplay:10.37,2013-01-30 00:03:00,
2013-01-29 19:08:00,33.6,31.8,30.14,SE,145,0.0,0.0,93,0.00,OVC,FEW,0.16,0.0,WeatherDisplay:10.37,2013-01-30 00:08:00,
2013-01-29 19:13:00,33.6,31.8,30.14,SE,145,0.0,0.0,93,0.00,OVC,FEW,0.16,0.0,WeatherDisplay:10.37,2013-01-30 00:13:00,
2013-01-29 19:18:00,33.6,31.8,30.14,SE,143,0.0,0.0,93,0.00,OVC,FEW,0.16,0.0,WeatherDisplay:10.37,2013-01-30 00:18:00,
2013-01-29 19:23:00,33.6,31.8,30.11,ESE,123,0.0,0.0,93,0.00,OVC,FEW,0.16,0.0,WeatherDisplay:10.37,2013-01-30 00:23:00,
2013-01-29 19:28:00,33.6,31.8,30.11,SE,141,3.5,3.5,93,0.00,OVC,FEW,0.16,0.0,WeatherDisplay:10.37,2013-01-30 00:28:00,
2013-01-29 19:33:00,33.6,31.8,30.11,SE,143,3.5,3.5,93,0.00,OVC,FEW,0.16,0.0,WeatherDisplay:10.37,2013-01-30 00:33:00,
2013-01-29 19:38:00,33.6,31.8,30.14,SSE,156,3.5,0.0,93,0.00,OVC,FEW,0.16,0.0,WeatherDisplay:10.37,2013-01-30 00:38:00,
2013-01-29 19:43:00,33.6,31.8,30.14,SE,127,0.0,0.0,93,0.00,OVC,FEW,0.16,0.0,WeatherDisplay:10.37,2013-01-30 00:43:00,
2013-01-29 19:48:00,33.6,31.8,30.14,SSE,159,0.0,0.0,93,0.00,OVC,FEW,0.16,0.0,WeatherDisplay:10.37,2013-01-30 00:48:00,
2013-01-29 19:53:00,33.6,31.8,30.14,SSE,159,0.0,0.0,93,0.00,OVC,FEW,0.16,0.0,WeatherDisplay:10.37,2013-01-30 00:53:00,
2013-01-29 19:58:00,33.6,31.8,30.14,SSE,160,0.0,0.0,93,0.00,OVC,FEW,0.16,0.0,WeatherDisplay:10.37,2013-01-30 00:58:00,
2013-01-29 20:03:00,33.6,31.8,30.14,SSE,159,0.0,0.0,93,0.00,OVC,FEW,0.16,0.0,WeatherDisplay:10.37,2013-01-30 01:03:00,
2013-01-29 20:08:00,33.6,31.8,30.14,SSE,148,0.0,0.0,93,0.00,OVC,FEW,0.16,0.0,WeatherDisplay:10.37,2013-01-30 01:08:00,
2013-01-29 20:13:00,33.6,31.8,30.14,SSE,159,0.0,0.0,93,0.00,OVC,FEW,0.16,0.0,WeatherDisplay:10.37,2013-01-30 01:13:00,
2013-01-29 20:18:00,33.6,31.8,30.14,SSE,159,0.0,0.0,93,0.00,OVC,FEW,0.16,0.0,WeatherDisplay:10.37,2013-01-30 01:18:00,
2013-01-29 20:23:00,33.6,31.8,30.14,SSE,159,0.0,0.0,93,0.00,OVC,FEW,0.16,0.0,WeatherDisplay:10.37,2013-01-30 01:23:00,
2013-01-29 20:28:00,33.6,31.8,30.14,SSE,159,0.0,0.0,93,0.00,OVC,FEW,0.16,0.0,WeatherDisplay:10.37,2013-01-30 01:28:00,
2013-01-29 20:33:00,33.6,31.8,30.14,SSE,159,0.0,0.0,93,0.00,OVC,FEW,0.16,0.0,WeatherDisplay:10.37,2013-01-30 01:33:00,
2013-01-29 20:38:00,33.6,31.8,30.14,SSE,159,0.0,0.0,93,0.00,OVC,FEW,0.16,0.0,WeatherDisplay:10.37,2013-01-30 01:38:00,
2013-01-29 20:43:00,33.6,31.8,30.14,SSE,159,0.0,0.0,93,0.00,OVC,FEW,0.16,0.0,WeatherDisplay:10.37,2013-01-30 01:43:00,
2013-01-29 20:48:00,33.6,32.1,30.14,SSE,159,0.0,0.0,94,0.00,OVC,FEW,0.16,0.0,WeatherDisplay:10.37,2013-01-30 01:48:00,
2013-01-29 20:53:00,33.6,32.1,30.14,SSE,159,0.0,0.0,94,0.00,OVC,FEW,0.16,0.0,WeatherDisplay:10.37,2013-01-30 01:53:00,
2013-01-29 20:58:00,33.6,32.1,30.14,SSE,159,0.0,0.0,94,0.00,OVC,FEW,0.16,0.0,WeatherDisplay:10.37,2013-01-30 01:58:00,
2013-01-29 21:03:00,33.6,32.1,30.14,SSE,159,0.0,0.0,94,0.00,OVC,FEW,0.16,0.0,WeatherDisplay:10.37,2013-01-30 02:03:00,
2013-01-29 21:08:00,33.6,32.1,30.14,SSE,159,0.0,0.0,94,0.00,OVC,FEW,0.16,0.0,WeatherDisplay:10.37,2013-01-30 02:08:00,
2013-01-29 21:13:00,33.6,32.1,30.14,SSE,159,0.0,0.0,94,0.00,OVC,FEW,0.16,0.0,WeatherDisplay:10.37,2013-01-30 02:13:00,
2013-01-29 21:18:00,33.6,32.1,30.14,SSE,159,0.0,0.0,94,0.00,OVC,FEW,0.16,0.0,WeatherDisplay:10.37,2013-01-30 02:18:00,
2013-01-29 21:23:00,33.6,32.1,30.11,SSE,159,0.0,0.0,94,0.00,OVC,FEW,0.16,0.0,WeatherDisplay:10.37,2013-01-30 02:23:00,
2013-01-29 21:28:00,33.8,32.3,30.11,SSE,159,0.0,0.0,94,0.00,OVC,FEW,0.16,0.0,WeatherDisplay:10.37,2013-01-30 02:28:00,
2013-01-29 21:33:00,33.8,32.3,30.11,SSE,159,0.0,0.0,94,0.00,OVC,FEW,0.16,0.0,WeatherDisplay:10.37,2013-01-30 02:33:00,
2013-01-29 21:38:00,33.6,32.1,30.11,SSE,159,0.0,0.0,94,0.00,OVC,FEW,0.16,0.0,WeatherDisplay:10.37,2013-01-30 02:38:00,
2013-01-29 21:43:00,33.6,32.1,30.11,SSE,159,0.0,0.0,94,0.00,OVC,FEW,0.16,0.0,WeatherDisplay:10.37,2013-01-30 02:43:00,
2013-01-29 21:48:00,33.6,32.1,30.11,SSE,159,0.0,0.0,94,0.00,OVC,FEW,0.16,0.0,WeatherDisplay:10.37,2013-01-30 02:48:00,
2013-01-29 21:53:00,33.6,32.1,30.11,SSE,159,0.0,0.0,94,0.00,OVC,FEW,0.16,0.0,WeatherDisplay:10.37,2013-01-30 02:53:00,
2013-01-29 21:58:00,33.6,32.1,30.11,SSE,155,0.0,0.0,94,0.00,OVC,FEW,0.16,0.0,WeatherDisplay:10.37,2013-01-30 02:58:00,
2013-01-29 22:03:00,33.6,32.1,30.11,SSE,155,0.0,0.0,94,0.00,OVC,FEW,0.16,0.0,WeatherDisplay:10.37,2013-01-30 03:03:00,
2013-01-29 22:08:00,33.8,32.3,30.11,SSE,151,0.0,0.0,94,0.00,OVC,FEW,0.16,0.0,WeatherDisplay:10.37,2013-01-30 03:08:00,
2013-01-29 22:13:00,33.8,32.3,30.11,SSE,149,0.0,0.0,94,0.00,OVC,FEW,0.16,0.0,WeatherDisplay:10.37,2013-01-30 03:13:00,
2013-01-29 22:18:00,33.8,32.3,30.11,SSE,149,0.0,0.0,94,0.00,-DZ,FEW,0.16,0.0,WeatherDisplay:10.37,2013-01-30 03:18:00,
2013-01-29 22:23:00,33.8,32.3,30.11,SSE,149,0.0,0.0,94,0.00,-DZ,FEW,0.16,0.0,WeatherDisplay:10.37,2013-01-30 03:23:00,
2013-01-29 22:28:00,33.8,32.3,30.11,SSE,149,0.0,0.0,94,0.00,-DZ,FEW,0.16,0.0,WeatherDisplay:10.37,2013-01-30 03:28:00,
2013-01-29 22:33:00,33.8,32.3,30.11,SSE,149,0.0,0.0,94,0.00,-DZ,FEW,0.16,0.0,WeatherDisplay:10.37,2013-01-30 03:33:00,
2013-01-29 22:38:00,33.8,32.3,30.11,SE,143,0.0,0.0,94,0.00,-DZ,FEW,0.16,0.0,WeatherDisplay:10.37,2013-01-30 03:38:00,
2013-01-29 22:43:00,33.8,32.3,30.11,SE,144,0.0,0.0,94,0.00,-DZ,FEW,0.16,0.0,WeatherDisplay:10.37,2013-01-30 03:43:00,
2013-01-29 22:48:00,33.8,32.3,30.11,SSE,162,0.0,0.0,94,0.00,OVC,FEW,0.16,0.0,WeatherDisplay:10.37,2013-01-30 03:48:00,
2013-01-29 22:53:00,33.8,32.3,30.08,SE,141,0.0,0.0,94,0.04,RA,FEW,0.20,0.0,WeatherDisplay:10.37,2013-01-30 03:53:00,
2013-01-29 22:58:00,33.8,32.3,30.08,SE,127,0.0,0.0,94,0.04,RA,FEW,0.20,0.0,WeatherDisplay:10.37,2013-01-30 03:58:00,
2013-01-29 23:03:00,33.8,32.3,30.08,SE,127,0.0,0.0,94,0.04,OVC,FEW,0.20,0.0,WeatherDisplay:10.37,2013-01-30 04:03:00,
2013-01-29 23:08:00,33.8,32.3,30.11,SE,127,0.0,0.0,94,0.04,OVC,FEW,0.20,0.0,WeatherDisplay:10.37,2013-01-30 04:08:00,
2013-01-29 23:13:00,33.8,32.3,30.11,SE,127,0.0,0.0,94,0.04,OVC,FEW,0.20,0.0,WeatherDisplay:10.37,2013-01-30 04:13:00,
2013-01-29 23:18:00,33.8,32.3,30.11,SE,127,0.0,0.0,94,0.04,-RA,FEW,0.20,0.0,WeatherDisplay:10.37,2013-01-30 04:18:00,
2013-01-29 23:23:00,33.6,32.1,30.11,SE,127,0.0,0.0,94,0.04,-RA,FEW,0.20,0.0,WeatherDisplay:10.37,2013-01-30 04:23:00,
2013-01-29 23:28:00,33.6,32.1,30.11,SE,127,0.0,0.0,94,0.04,-RA,FEW,0.20,0.0,WeatherDisplay:10.37,2013-01-30 04:28:00,
2013-01-29 23:33:00,33.6,32.3,30.11,SE,127,0.0,0.0,95,0.04,-RA,FEW,0.20,0.0,WeatherDisplay:10.37,2013-01-30 04:33:00,
2013-01-29 23:38:00,33.6,32.3,30.11,SE,127,0.0,0.0,95,0.04,-RA,FEW,0.20,0.0,WeatherDisplay:10.37,2013-01-30 04:38:00,
2013-01-29 23:43:00,33.6,32.3,30.11,SE,127,0.0,0.0,95,0.04,-RA,FEW,0.20,0.0,WeatherDisplay:10.37,2013-01-30 04:43:00,
2013-01-29 23:48:00,33.6,32.3,30.11,SE,127,0.0,0.0,95,0.04,-RA,FEW,0.20,0.0,WeatherDisplay:10.37,2013-01-30 04:48:00,
2013-01-29 23:53:00,33.6,32.3,30.11,SE,127,0.0,0.0,95,0.00,-RA,FEW,0.24,0.0,WeatherDisplay:10.37,2013-01-30 04:53:00,
2013-01-29 23:58:00,33.6,32.3,30.11,SE,127,0.0,0.0,95,0.04,-RA,FEW,0.24,0.0,WeatherDisplay:10.37,2013-01-30 04:58:00,